STARLINK-11671, 64319

Orbit data source: Space-Track

STARLINK-11671, 64319 is a payload satellite owned by SpaceX/Seattle (US) in LEO that was launched on Tue, 10 Jun 2025 UTC via an FALCON 9 launch vehicle from the Air Force Eastern Test Range (AFETR). Payload-class satellites include a variety of spacecraft equipped with specific instruments for various scientific and technological missions. These include communications satellites like Starlink; space stations such as the ISS; scientific satellites like the Hubble; Earth observation satellites from companies like Planet Labs, Umbra, and HawkEye 360; GPS; miniature CubeSats for education and research; and military/defense satellites.

Loading next visibility...
Identifier
64319, 2025-124C
Orbit
LEO
Country
Flag of USUS
Related business
Manufacturer
SpaceX/Seattle
Mission
Operational Commercial Communications
Bus & Motor
STARLINK V2M, Unknown motor
Mass
730 kg wet, ~700 kg dry
Launch date (UTC)
2025-06-10 (3 months ago)
Launch vehicle
FALCON 9
Launch site
Air Force Eastern Test Range (AFETR)
Object type
Payload
Rocket body
Debris
Shape & HBR
Box + 2 Pan, 14.5 m
Radar Cross Section
36.964 m², Large (>1 m²)

Expand to show TLE details & history
Last TLE update: 5 hours ago

TLE from 5 hours ago
0 STARLINK-11671
1 64319U 25124C   25242.92451780  .00170970  00000-0  13056-2 0  9999
2 64319  42.9987  98.9400 0002038 264.3886  95.6750 15.70895759 12836
Epoch: 2025-08-30T22:11Z
TLE epoch observation values (Epoch: 2025-08-30T22:11:18.337Z)
Latitude
0.00001°
Longitude
146.76178°
Altitude
356.243 km
Speed
7.697 km/s
True Right ascension
06h 35m 45s
True Declination
0° 00' 00"
Sunlit
Object was in daylight at epoch
Visualization orbit readout
Latitude
Unknown
Longitude
Unknown
Altitude
Unknown
Speed
Unknown
Apparent Right ascension
Unknown
Apparent Declination
Unknown
Sunlit
N/A
Visualization observer readout
Local Sidereal Time
19:07:28
Azimuth
Unknown
Elevation
Unknown
Doppler factor
Unknown
Orbital elements
Apogee altitude
359.69 km
Perigee altitude
356.945 km
Semi-major axis
6,736.455 km
Eccentricity
0.0002
Inclination
42.9987°
RAAN
98.94°
Arg. of periapsis
264.3886°
True anomaly
95.69824°
Mean anomaly
95.675°
Eccentric anomaly
95.68662°
Mean motion
3.92551 °/min
Orbital period
91.71 mins
BSTAR
0.0013056
Loading maneuver chart data...
Computing Atmospheric mass density...
Loading historical data...
Loading historical data...
Loading historical data...
Loading historical data...
Loading historical data...
Loading historical data...
Loading historical data...

Documentation

Showing up to 5 results
|